"Pseudo-MPEC" for P21C6jf

Created 2022 Nov 26 22:22:23 UT using Find_Orb

Click here for an explanation of pseudo-MPECs

 
 Astrometry: 
     P21C6jf* C2022 11 24eND9i6RQSAstrometryI3E+abZDS`_WHvumDG!?2*LM.Xi_19L0xF52
     P21C6jf  C2022 11 244LX2Yrr7@nfhm*5H#!RAM%)_oredacted;hKb;[`)br;Ak3Xe\DSF52
     P21C6jf  C2022 11 24ONBw,DPMK/W1$y\f:qCYy9!jLY/.Xc7`_il)?tUN+f-*MysTvSS5F52
     P21C6jf  C2022 11 24.wbg,JyI`/+,8$G,1395g;cA7NM$KikWmE'/_j:k(rPK)=y-+:p,F52
     P21C6jf $C2022 11 26fT3jYV57I4r3sMeclickxF](q@Fi@-O4WUtCd-gw=V4gk`dV'OUMJ04
     P21C6jf $C2022 11 262]xS]hMj=aGL\jjC1hahV(Yq\CMcM(k9fCFI1heresn([;/q`y:qJ04
     P21C6jf $C2022 11 26AU9R]rIspv7wY(6yK]70psE2(L\1wWf7/$cXw3/40Bp!AB^w3Hn,J04
     P21C6jf KC2022 11 26.51112 09 36 17.20 -19 01 29.3    ~BQD7 20.5 RoNEOCP691
     P21C6jf KC2022 11 26.51594 09 36 17.54 -19 01 35.9    ~BQD7 20.6 RoNEOCP691
     P21C6jf KC2022 11 26.52077 09 36 17.97 -19 01 42.4    ~BQD7 20.8 RoNEOCP691
     P21C6jf 3C2022 11 26nZi0,Ku)(bt8@^Jqq3`\UV]PRuNeCBLkV;VbfQEHm@:3Xe_)REe.T14
     P21C6jf 3C2022 11 26!^TQ2sO.E@d:vLNL)uFC/$bn-;9M#n)a[Nvd\u*G6'Mp/Sy*ywmWT14
     P21C6jf 3C2022 11 269;?..F1#Ofors%d!UN]QexplanationY^g:f]#?7a?h/P[JojY;!T14

Station data:
(691) Steward Observatory, Kitt Peak - Spacewatch  (N31.962174 W111.600327)
   US/Arizona.  Observer J. V. Scotti. 0.9-m f/3 reflector + CCD.
(F52) Pan-STARRS 2, Haleakala  (N20.707382 W156.255910)  US/Hawaii.
   Observers J. Bulger, T. Dukes, T. Lowe, A. Schultz, M. Willman. Measurers
   K. Chambers, S. Chastel, T. de Boer, L. Denneau, J. Fairlamb, H.
   Flewelling, M. Huber, C.-C. Lin, E. Magnier, Y. Ramanjooloo, R. Wainscoat,
   R. Weryk. 1.8-m Ritchey-Chrétien + CCD.
(J04) ESA Optical Ground Station, Tenerife  (N28.300922 W16.511830)  Canary
   Islands (Spain).  Observer D. Abreu. Measurers M. Micheli, D. Koschny, E.
   Schwab, M. Busch, A. Knöfel. 1.0-m f/4.4 reflector + CCD.
(T14) Mauna Kea-UH/Tholen NEO Follow-Up (CFHT)  (N19.825252 W155.468876)
   US/Hawaii. 3.6-m Canada-France-Hawaii Telescope.

Orbital elements:  P21C6jf
   Perihelion 2022 Dec 12.68546 +/- 151 TT = 16:27:03 (JD 2459926.18546)
Epoch 2022 Nov 26.0 TT = JDT 2459909.5                        AutoNEOCP
M 357.18086752 +/- 110              (J2000 ecliptic)
n   0.16895747 +/- 0.269            Peri.  263.42307 +/- 110
a   3.24054285 +/- 3.44             Node   223.32212 +/- 18
e   0.4240904 +/- 0.23              Incl.   27.00264 +/- 3.3
P   5.83                   H 17.3   G  0.15   U 11.9  SR
q 1.86625949 +/- 0.504    Q 4.61482622 +/- 17.4
From 13 observations 2022 Nov. 24-26; mean residual 0".16
Residuals in arcseconds: 
221124 F52  .03-  .08+    221126 J04  .30+  .04-    221126 T14  .02-  .02+    
221124 F52  .04-  .08+    221126 J04  .30+  .12-    221126 T14  .01-  .00     
221124 F52  .00   .07-    221126 691  .54+  .02-    221126 T14  .01-  .01-    
221124 F52  .12-  .04-    221126 691  .31-  .00     
221126 J04  .23+  .11-    221126 691  .11+  .12+    

Ephemerides (geocentric):
Date (UTC) HH   RA             Dec           delta  r     elong  mag " sig PA
---- --------  ------------   ------------  ------ ------ -----  --- --------
2022 11 26 22  09 36 51.512   -19 10 40.76  1.5826 1.8707  90.4 21.0 1.37  64
2022 11 26 23  09 36 55.036   -19 11 37.84  1.5822 1.8707  90.4 21.0 1.43  59
2022 11 27 00  09 36 58.558   -19 12 34.92  1.5819 1.8707  90.4 21.0 1.51  55
2022 11 27 01  09 37 02.079   -19 13 31.99  1.5816 1.8707  90.4 21.0 1.62  52
2022 11 27 02  09 37 05.597   -19 14 29.05  1.5813 1.8706  90.5 21.0 1.74  50
2022 11 27 03  09 37 09.114   -19 15 26.12  1.5810 1.8706  90.5 21.0 1.88  49
2022 11 27 04  09 37 12.629   -19 16 23.18  1.5807 1.8706  90.5 21.0 2.03  48
2022 11 27 05  09 37 16.142   -19 17 20.23  1.5803 1.8706  90.5 21.0 2.20  47
2022 11 27 06  09 37 19.653   -19 18 17.28  1.5800 1.8705  90.5 21.0 2.37  47
2022 11 27 07  09 37 23.163   -19 19 14.33  1.5797 1.8705  90.5 21.0 2.56  47
2022 11 27 08  09 37 26.671   -19 20 11.37  1.5794 1.8705  90.6 21.0 2.75  47
2022 11 27 09  09 37 30.177   -19 21 08.41  1.5791 1.8705  90.6 21.0 2.95  47
2022 11 27 10  09 37 33.682   -19 22 05.44  1.5788 1.8705  90.6 21.0 3.16  47
2022 11 27 11  09 37 37.184   -19 23 02.47  1.5785 1.8704  90.6 21.0 3.37  47
2022 11 27 12  09 37 40.685   -19 23 59.49  1.5781 1.8704  90.6 21.0 3.59  48
2022 11 27 13  09 37 44.184   -19 24 56.52  1.5778 1.8704  90.6 21.0 3.82  48
2022 11 27 14  09 37 47.682   -19 25 53.53  1.5775 1.8704  90.7 21.0 4.06  48
2022 11 27 15  09 37 51.177   -19 26 50.54  1.5772 1.8703  90.7 21.0 4.30  48
2022 11 27 16  09 37 54.671   -19 27 47.55  1.5769 1.8703  90.7 21.0 4.55  49
2022 11 27 17  09 37 58.163   -19 28 44.55  1.5766 1.8703  90.7 21.0 4.81  49
2022 11 27 18  09 38 01.653   -19 29 41.55  1.5762 1.8703  90.7 21.0 5.07  49
2022 11 27 19  09 38 05.142   -19 30 38.54  1.5759 1.8703  90.7 21.0 5.34  50
2022 11 27 20  09 38 08.629   -19 31 35.53  1.5756 1.8702  90.8 21.0 5.62  50
2022 11 27 21  09 38 12.113   -19 32 32.52  1.5753 1.8702  90.8 21.0 5.90  50
2022 11 27 22  09 38 15.597   -19 33 29.50  1.5750 1.8702  90.8 21.0 6.19  51
2022 11 27 23  09 38 19.078   -19 34 26.47  1.5747 1.8702  90.8 21.0 6.48  51
2022 11 28 00  09 38 22.558   -19 35 23.44  1.5744 1.8701  90.8 21.0 6.78  51
2022 11 28 01  09 38 26.035   -19 36 20.41  1.5740 1.8701  90.9 21.0 7.09  51
2022 11 28 02  09 38 29.511   -19 37 17.37  1.5737 1.8701  90.9 21.0 7.40  52
2022 11 28 03  09 38 32.986   -19 38 14.33  1.5734 1.8701  90.9 21.0 7.72  52
2022 11 28 04  09 38 36.458   -19 39 11.28  1.5731 1.8701  90.9 21.0 8.04  52
2022 11 28 05  09 38 39.929   -19 40 08.23  1.5728 1.8700  90.9 21.0 8.37  52
2022 11 28 06  09 38 43.398   -19 41 05.17  1.5725 1.8700  90.9 21.0 8.71  53
2022 11 28 07  09 38 46.865   -19 42 02.11  1.5722 1.8700  91.0 21.0 9.05  53
2022 11 28 08  09 38 50.330   -19 42 59.04  1.5719 1.8700  91.0 21.0 9.40  53
2022 11 28 09  09 38 53.794   -19 43 55.97  1.5715 1.8699  91.0 21.0 9.76  53
2022 11 28 10  09 38 57.255   -19 44 52.89  1.5712 1.8699  91.0 21.0 10.1  53
2022 11 28 11  09 39 00.715   -19 45 49.81  1.5709 1.8699  91.0 21.0 10.5  54
2022 11 28 12  09 39 04.173   -19 46 46.72  1.5706 1.8699  91.0 21.0 10.9  54
2022 11 28 13  09 39 07.630   -19 47 43.63  1.5703 1.8699  91.1 21.0 11.2  54
2022 11 28 14  09 39 11.084   -19 48 40.53  1.5700 1.8698  91.1 21.0 11.6  54
2022 11 28 15  09 39 14.537   -19 49 37.43  1.5697 1.8698  91.1 21.0 12.0  54
2022 11 28 16  09 39 17.988   -19 50 34.32  1.5693 1.8698  91.1 21.0 12.4  54
2022 11 28 17  09 39 21.437   -19 51 31.21  1.5690 1.8698  91.1 21.0 12.8  54
2022 11 28 18  09 39 24.884   -19 52 28.09  1.5687 1.8698  91.1 21.0 13.2  55
2022 11 28 19  09 39 28.330   -19 53 24.97  1.5684 1.8697  91.2 21.0 13.6  55
2022 11 28 20  09 39 31.774   -19 54 21.84  1.5681 1.8697  91.2 21.0 14.1  55
2022 11 28 21  09 39 35.216   -19 55 18.71  1.5678 1.8697  91.2 21.0 14.5  55